Stations météo

Publicité
Bordeaux/Merignac, France (7510): Température de l'air & dewpoint: 12.08.2019 12:00:00 - 18.08.2019 12:00:00 (CEST)Bordeaux/Merignac, France (7510): Température de l'air 5cm: 12.08.2019 12:00:00 - 18.08.2019 12:00:00 (CEST)Bordeaux/Merignac, France (7510): Température de l'air -20cm & Température de l'air -100cm: 12.08.2019 12:00:00 - 18.08.2019 12:00:00 (CEST)Bordeaux/Merignac, France (7510): Vitesse du vent & gusts: 12.08.2019 12:00:00 - 18.08.2019 12:00:00 (CEST)Bordeaux/Merignac, France (7510): Direction du vent: 12.08.2019 12:00:00 - 18.08.2019 12:00:00 (CEST)Bordeaux/Merignac, France (7510): reduced air pressure: 12.08.2019 12:00:00 - 18.08.2019 12:00:00 (CEST)Bordeaux/Merignac, France (7510): visibility: 12.08.2019 12:00:00 - 18.08.2019 12:00:00 (CEST)Bordeaux/Merignac, France (7510): Ensoleillement: 12.08.2019 12:00:00 - 18.08.2019 12:00:00 (CEST)Bordeaux/Merignac, France (7510): Quantités de précipitations: 12.08.2019 12:00:00 - 18.08.2019 12:00:00 (CEST)
Date & Time tt [°C] td [°C] tt 5cm [°C] tt -20cm [°C] tt -100cm [°C] ff [km/h] ff [knt] fx [km/h] fx [knt] dd ppp [hPa] vv [km] sd [min] rr [mm]
18.08.2019 12:00:00 25,6 18,3 26,8 23,1 22,5 22 12 31 17 W 1012,7 39 4 0,0
18.08.2019 11:00:00 25,5 18,7 28,2 22,9 22,5 18 10 28 15 WNW 1012,2 44 49 0,0
18.08.2019 10:00:00 24,5 18,9 25,9 22,8 22,5 4 2 10 5 W 1011,6 49 60 0,0
18.08.2019 09:00:00 21,0 19,3 19,9 22,8 22,5 3 1 5 3 SSE 1011,2 20 60 0,0
18.08.2019 08:00:00 17,8 17,0 15,2 23,0 22,4 2 1 5 3 SSE 1010,3 4,0 10 0,0
18.08.2019 07:00:00 17,4 16,4 15,3 23,1 22,4 0 0 4 2 N 1009,9 1,5 0 0,0
18.08.2019 06:00:00 17,7 16,6 15,6 23,3 22,4 0 0 5 3 N 1010,0 6 0 0,0
18.08.2019 05:00:00 18,4 17,2 15,9 23,5 22,4 3 2 9 5 NNW 1010,4 1,4 0 0,0
18.08.2019 04:00:00 18,7 17,4 15,6 23,7 22,4 7 4 15 8 SSE 1010,6 19 0 0,0
18.08.2019 03:00:00 18,5 17,0 16,3 23,9 22,4 3 2 8 4 SSE 1011,0 7 0 0,0
18.08.2019 02:00:00 18,9 17,6 16,2 24,1 22,4 0 0 6 3 N 1011,7 0,9 0 0,0
18.08.2019 01:00:00 19,4 17,5 16,8 24,4 22,4 4 2 4 2 SSW 1012,3 2,9 0 0,0
18.08.2019 00:00:00 20,1 17,9 18,0 24,6 22,4 0 0 8 5 N 1012,8 34 0 0,0
17.08.2019 23:00:00 21,1 17,7 20,2 24,9 22,4 7 4 14 8 NW 1013,0 48 0 0,0
17.08.2019 22:00:00 22,5 17,6 21,2 25,1 22,4 8 4 16 8 NW 1012,9 60 0 0,0
17.08.2019 21:00:00 24,4 17,4 23,5 25,2 22,4 6 3 17 9 NW 1012,6 58 40 0,0
17.08.2019 20:00:00 26,8 16,7 28,7 25,3 22,4 11 6 21 11 W 1013,0 18 60 0,0
17.08.2019 19:00:00 27,6 16,2 31,4 25,2 22,4 15 8 23 13 WSW 1013,2 11 60 0,0
17.08.2019 18:00:00 28,3 16,6 32,7 25,0 22,4 19 10 40 22 SW 1013,6 10 60 0,0
17.08.2019 17:00:00 28,4 17,6 33,1 24,7 22,4 14 7 29 15 W 1013,9 11 60 0,0
17.08.2019 16:00:00 28,0 17,8 33,1 24,2 22,4 18 10 33 18 W 1014,3 9 60 0,0
17.08.2019 15:00:00 27,8 17,0 31,4 23,8 22,4 22 12 34 19 WSW 1014,8 10 60 0,0
17.08.2019 14:00:00 27,5 16,8 32,6 23,2 22,4 21 12 33 18 W 1015,0 13 60 0,0
17.08.2019 13:00:00 26,1 17,5 30,2 22,7 22,4 17 9 31 17 WSW 1015,5 16 58 0,0
17.08.2019 12:00:00 25,3 18,2 29,3 22,4 22,4 13 7 26 14 W 1015,8 16 60 0,0
17.08.2019 11:00:00 23,4 17,4 26,5 22,2 22,4 14 8 22 12 SW 1015,9 17 60 0,0
17.08.2019 10:00:00 21,0 17,8 22,0 22,1 22,4 14 8 23 12 SSW 1015,7 18 60 0,0
17.08.2019 09:00:00 18,2 16,9 17,2 22,2 22,4 7 4 19 10 SSW 1016,1 19 44 0,0
17.08.2019 08:00:00 16,4 15,6 15,0 22,3 22,4 12 6 17 9 S 1015,7 16 17 0,0
17.08.2019 07:00:00 15,8 15,0 14,8 22,5 22,4 8 4 13 7 S 1015,8 16 0 0,0
17.08.2019 06:00:00 15,6 14,6 14,6 22,6 22,4 9 5 13 7 S 1015,6 13 0 0,0
17.08.2019 05:00:00 16,1 14,8 15,0 22,8 22,4 9 5 16 8 S 1015,9 13 0 0,0
17.08.2019 04:00:00 15,9 14,3 14,4 23,0 22,4 5 3 8 4 S 1016,3 14 0 0,0
17.08.2019 03:00:00 15,6 14,0 13,6 23,3 22,4 4 2 9 5 SSW 1016,8 22 0 0,0
17.08.2019 02:00:00 15,8 13,6 13,8 23,5 22,4 7 4 10 5 SW 1016,6 31 0 0,0
17.08.2019 01:00:00 16,8 13,9 15,1 23,8 22,4 9 5 11 6 WSW 1016,9 32 0 0,0
17.08.2019 00:00:00 18,0 13,9 15,3 24,1 22,4 6 3 8 5 WSW 1016,7 40 0 0,0
16.08.2019 23:00:00 19,2 14,0 17,3 24,3 22,4 5 3 13 7 W 1016,5 58 0 0,0
16.08.2019 22:00:00 20,2 14,3 19,1 24,6 22,4 8 4 19 10 NW 1016,5 54 0 0,0
16.08.2019 21:00:00 22,8 15,1 22,0 24,7 22,4 11 6 23 13 NW 1015,6 60 10 0,0
16.08.2019 20:00:00 25,6 15,6 25,6 24,8 22,4 14 8 22 12 NW 1015,3 47 26 0,0
16.08.2019 19:00:00 28,3 12,6 32,7 24,7 22,4 3 2 15 8 S 1015,2 47 60 0,0
16.08.2019 18:00:00 27,9 13,8 32,6 24,4 22,4 8 4 21 11 SSW 1015,5 48 60 0,0
16.08.2019 17:00:00 28,2 14,1 30,1 24,1 22,4 8 4 16 9 SSE 1016,2 34 44 0,0
16.08.2019 16:00:00 26,6 14,0 31,7 23,6 22,4 4 2 16 9 SSE 1017,0 34 60 0,0
16.08.2019 15:00:00 25,8 14,0 32,0 23,1 22,5 5 3 19 10 ENE 1017,5 41 60 0,0
16.08.2019 14:00:00 25,1 13,9 30,7 22,5 22,4 8 4 17 9 SSW 1018,2 20 60 0,2
16.08.2019 13:00:00 24,0 13,2 27,5 21,9 22,5 7 4 16 8 WSW 1018,8 14 60 0,0
16.08.2019 12:00:00 22,3 13,1 26,6 21,5 22,5 4 2 16 9 S 1019,6 49 60 0,0
16.08.2019 11:00:00 21,3 13,7 23,2 21,3 22,5 9 5 19 11 SE 1019,6 28 60 0,0
16.08.2019 10:00:00 19,3 13,9 20,6 21,2 22,5 10 5 14 8 SE 1020,1 29 60 0,0
16.08.2019 09:00:00 17,3 15,1 15,3 21,2 22,5 5 3 8 4 ESE 1020,5 20 60 0,0
16.08.2019 08:00:00 13,7 13,4 9,3 21,4 22,5 3 1 5 3 SE 1020,5 18 12 0,0
16.08.2019 07:00:00 12,3 11,7 9,3 21,6 22,5 0 0 3 1 N 1020,9 2,6 0 0,0
16.08.2019 06:00:00 12,3 11,7 9,3 21,8 22,5 0 0 2 1 N 1021,0 30 0 0,0
16.08.2019 05:00:00 12,9 12,3 9,9 22,1 22,5 0 0 3 1 N 1021,2 0,5 0 0,0
16.08.2019 04:00:00 13,3 12,5 10,2 22,3 22,5 0 0 3 2 N 1021,6 0,2 0 0,0
16.08.2019 03:00:00 13,6 12,5 10,6 22,5 22,4 0 0 5 3 N 1021,9 1,6 0 0,0
16.08.2019 02:00:00 14,6 13,3 11,3 22,8 22,5 5 3 6 4 WSW 1022,5 2,2 0 0,0
16.08.2019 01:00:00 15,2 13,7 12,0 23,1 22,5 5 3 6 4 W 1022,9 0,4 0 0,0
16.08.2019 00:00:00 15,7 13,7 12,6 23,3 22,4 5 3 6 3 SW 1022,6 26 0 0,0
15.08.2019 23:00:00 17,3 14,0 14,4 23,5 22,5 3 1 13 7 WSW 1023,1 22 0 0,0
15.08.2019 22:00:00 18,3 14,0 16,9 23,7 22,5 5 3 14 7 NNW 1023,2 30 0 0,0
15.08.2019 21:00:00 19,7 13,6 18,9 23,9 22,5 8 4 20 11 NW 1022,7 59 32 0,0
15.08.2019 20:00:00 21,9 12,4 23,5 23,9 22,5 16 9 25 14 WNW 1022,3 34 28 0,0
15.08.2019 19:00:00 22,5 13,0 23,8 23,9 22,5 14 8 25 13 NW 1022,3 42 8 0,0
15.08.2019 18:00:00 22,5 13,6 24,4 23,8 22,5 14 8 26 14 NNW 1022,3 36 5 0,0
15.08.2019 17:00:00 22,7 12,9 25,0 23,6 22,5 14 7 28 15 WNW 1022,2 29 7 0,0
15.08.2019 16:00:00 23,3 14,0 25,7 23,3 22,5 13 7 28 15 NW 1022,4 20 23 0,0
15.08.2019 15:00:00 23,0 12,6 26,7 23,0 22,5 19 10 29 16 WNW 1022,2 23 13 0,0
15.08.2019 14:00:00 22,5 12,7 23,2 22,8 22,5 16 9 29 16 WNW 1022,2 26 5 0,0
15.08.2019 13:00:00 21,9 13,8 23,1 22,5 22,5 18 10 29 16 NW 1022,2 28 9 0,0
15.08.2019 12:00:00 22,0 14,6 21,2 22,2 22,5 19 10 32 17 NW 1022,0 20 49 0,0
15.08.2019 11:00:00 19,2 16,4 17,6 22,2 22,5 9 5 21 12 WNW 1021,8 42 7 0,4
15.08.2019 10:00:00 19,4 16,1 18,0 22,1 22,5 10 5 21 12 WNW 1021,4 37 12 0,0
15.08.2019 09:00:00 18,2 15,4 16,6 22,2 22,5 7 4 18 10 W 1020,9 39 0 0,0
15.08.2019 08:00:00 17,3 15,6 16,4 22,3 22,5 7 4 11 6 WSW 1020,5 34 0 0,0
15.08.2019 07:00:00 17,2 15,7 15,8 22,4 22,5 8 4 16 9 WSW 1019,9 19 0 0,0
15.08.2019 06:00:00 17,7 16,2 16,4 22,6 22,5 10 6 17 9 W 1019,3 20 0 0,0
15.08.2019 05:00:00 18,7 17,7 17,8 22,8 22,5 14 8 28 15 W 1019,3 32 0 0,0
15.08.2019 04:00:00 19,1 18,4 18,2 22,9 22,5 8 4 21 12 WSW 1019,2 25 0 0,0
15.08.2019 03:00:00 19,8 19,1 19,0 23,0 22,5 14 7 25 14 W 1019,2 42 0 0,0
15.08.2019 02:00:00 19,6 19,1 18,6 23,1 22,5 11 6 19 11 WSW 1019,3 13 0 1,0
15.08.2019 01:00:00 19,2 18,4 18,5 23,2 22,5 13 7 25 14 SSW 1019,5 1,5 0 0,4
15.08.2019 00:00:00 20,1 17,5 19,7 23,4 22,5 15 8 26 14 SW 1019,4 32 0 0,0
14.08.2019 23:00:00 20,4 16,0 19,4 23,6 22,5 9 5 16 8 SW 1019,5 43 0 0,0
14.08.2019 22:00:00 20,7 16,1 20,2 23,8 22,5 16 9 25 13 WSW 1019,5 16 0 0,0
14.08.2019 21:00:00 21,4 15,0 21,2 23,9 22,6 16 8 27 15 W 1019,2 52 0 0,0
14.08.2019 20:00:00 22,4 13,2 22,9 24,0 22,6 18 10 30 16 WSW 1018,8 30 0 0,0
14.08.2019 19:00:00 23,4 9,4 24,3 24,0 22,6 20 11 31 17 WSW 1018,8 33 3 0,0
14.08.2019 18:00:00 24,9 10,4 27,1 23,9 22,6 21 11 31 17 W 1018,8 16 16 0,0
14.08.2019 17:00:00 25,0 11,9 28,4 23,6 22,6 20 11 29 15 W 1019,1 18 4 0,0
14.08.2019 16:00:00 26,4 12,1 30,3 23,2 22,6 16 9 33 18 W 1018,9 25 23 0,0
14.08.2019 15:00:00 25,5 10,5 30,4 22,6 22,6 14 7 23 13 SW 1019,4 29 55 0,0
14.08.2019 14:00:00 24,9 11,5 30,8 22,1 22,7 8 4 21 11 S 1020,0 31 60 0,0
14.08.2019 13:00:00 23,5 11,5 28,9 21,6 22,7 9 5 21 11 SSW 1020,3 36 60 0,0
14.08.2019 12:00:00 22,4 11,5 27,3 21,2 22,7 9 5 17 9 SSW 1020,6 37 60 0,0
14.08.2019 11:00:00 21,3 12,4 24,0 20,9 22,7 10 5 19 11 SSE 1020,9 46 60 0,0
14.08.2019 10:00:00 19,4 12,6 20,0 20,8 22,7 10 6 16 8 SE 1021,0 38 60 0,0
14.08.2019 09:00:00 16,7 12,8 14,6 20,8 22,7 7 4 11 6 ESE 1021,3 46 60 0,0
14.08.2019 08:00:00 13,6 12,8 9,2 20,9 22,7 5 3 6 4 ESE 1021,0 24 32 0,0
14.08.2019 07:00:00 11,7 10,9 9,0 21,2 22,7 0 0 4 2 N 1021,2 0,2 0 0,0
14.08.2019 06:00:00 11,9 10,8 9,1 21,4 22,7 0 0 2 1 N 1020,8 0,3 0 0,0
14.08.2019 05:00:00 12,3 10,9 9,4 21,6 22,7 0 0 3 2 N 1021,1 0,9 0 0,0
14.08.2019 04:00:00 13,1 11,2 10,2 21,8 22,7 0 0 4 2 N 1021,6 10 0 0,0
14.08.2019 03:00:00 14,3 12,2 12,3 21,9 22,8 2 1 4 2 W 1022,0 13 0 0,0
14.08.2019 02:00:00 14,4 11,7 11,8 22,1 22,8 2 1 4 2 W 1022,5 25 0 0,0
14.08.2019 01:00:00 14,5 11,6 11,7 22,3 22,7 4 2 7 4 NNE 1022,5 30 0 0,0
14.08.2019 00:00:00 15,3 11,7 13,6 22,6 22,8 3 1 11 6 WNW 1023,1 43 0 0,0
13.08.2019 23:00:00 16,1 11,5 14,3 22,8 22,8 5 3 11 6 NW 1023,1 33 0 0,0
13.08.2019 22:00:00 17,2 11,5 15,5 23,0 22,8 7 4 16 8 NW 1022,9 50 0 0,0
13.08.2019 21:00:00 19,1 10,9 18,3 23,1 22,8 11 6 21 12 NW 1022,7 57 28 0,0
13.08.2019 20:00:00 21,2 9,7 23,0 23,2 22,8 14 7 22 12 NW 1022,1 43 46 0,0
13.08.2019 19:00:00 21,9 9,8 22,4 23,2 22,9 10 6 21 12 N 1022,0 58 32 0,0
13.08.2019 18:00:00 21,4 10,5 22,6 23,2 22,9 12 7 19 10 N 1022,2 53 0 0,0
13.08.2019 17:00:00 21,2 10,4 22,8 23,1 22,9 10 5 26 14 N 1022,5 50 0 0,0
13.08.2019 16:00:00 21,7 10,8 23,4 22,9 22,9 8 4 19 10 WNW 1022,6 42 12 0,0
13.08.2019 15:00:00 22,0 10,8 22,6 22,7 22,9 8 4 18 10 WNW 1022,9 46 12 0,0
13.08.2019 14:00:00 21,0 9,6 24,2 22,3 22,9 10 5 17 9 NW 1023,2 53 27 0,0
13.08.2019 13:00:00 21,8 9,3 22,7 21,9 23,0 6 4 15 8 N 1023,5 43 47 0,0
13.08.2019 12:00:00 19,7 10,7 22,4 21,6 22,9 7 4 13 7 NW 1024,1 46 6 0,0
13.08.2019 11:00:00 20,0 11,2 21,1 21,4 22,9 3 2 10 6 E 1023,9 40 52 0,0
13.08.2019 10:00:00 17,8 11,8 19,3 21,3 22,9 3 2 6 4 SSE 1023,9 41 23 0,0
13.08.2019 09:00:00 16,5 12,5 14,7 21,4 23,0 0 0 5 3 N 1023,7 23 57 0,0
13.08.2019 08:00:00 13,1 11,5 10,9 21,6 23,0 2 1 5 3 WSW 1023,6 4,3 2 0,0
13.08.2019 07:00:00 13,1 11,2 10,8 21,7 23,0 3 1 21 11 WNW 1023,5 0,7 0 0,0
13.08.2019 06:00:00 13,6 11,1 12,0 21,9 23,0 3 2 6 3 WSW 1023,3 9 0 0,0
13.08.2019 05:00:00 13,4 11,3 11,9 22,1 23,0 4 2 6 4 WSW 1023,2 10 0 0,0
13.08.2019 04:00:00 13,5 11,9 11,5 22,3 23,0 4 2 5 3 SW 1023,7 10 0 0,0
13.08.2019 03:00:00 13,8 11,8 12,0 22,5 23,0 2 1 11 6 E 1024,1 17 0 0,0
13.08.2019 02:00:00 14,4 11,9 12,2 22,7 23,0 3 2 8 4 SSW 1024,4 22 0 0,0
13.08.2019 01:00:00 15,0 11,9 13,0 22,9 23,0 6 3 9 5 SW 1024,6 11 0 0,0
13.08.2019 00:00:00 15,2 12,3 12,7 23,2 23,1 6 3 9 5 SW 1024,5 25 0 0,0
12.08.2019 23:00:00 16,0 12,2 13,3 23,5 23,1 6 3 9 5 SW 1024,2 28 0 0,0
12.08.2019 22:00:00 17,2 12,1 15,4 23,7 23,1 5 3 16 9 W 1023,5 51 0 0,0
12.08.2019 21:00:00 18,6 12,1 17,9 23,9 23,1 12 7 29 16 NW 1022,9 49 34 0,0
12.08.2019 20:00:00 20,4 12,4 21,4 23,9 23,1 19 11 33 18 WNW 1022,1 25 49 0,0
12.08.2019 19:00:00 21,0 12,7 21,7 23,9 23,1 22 12 41 22 NW 1021,6 19 51 0,0
12.08.2019 18:00:00 21,8 11,8 22,6 23,8 23,1 21 12 38 20 WNW 1021,4 15 35 0,0
12.08.2019 17:00:00 21,3 13,5 18,1 23,7 23,1 19 10 44 24 WNW 1021,3 16 31 0,2
12.08.2019 16:00:00 21,9 12,4 23,3 23,4 23,1 24 13 39 21 W 1021,1 15 39 0,0
12.08.2019 15:00:00 21,9 12,4 23,2 23,1 23,2 27 14 53 28 W 1020,9 18 38 0,0
12.08.2019 14:00:00 22,2 11,3 19,6 22,8 23,2 26 14 40 22 W 1020,8 27 49 0,0
12.08.2019 13:00:00 21,2 13,1 16,1 22,4 23,2 24 13 49 26 WSW 1020,6 49 42 2,1
12.08.2019 12:00:00 21,6 12,4 24,2 22,1 23,2 17 9 30 16 W 1020,4 35 60 0,0

tt = Température de l'air
td = dewpoint
tt 5cm = Température de l'air 5cm
tt -20cm = Température de l'air -20cm
tt -100cm = Température de l'air -100cm
ff = Vitesse du vent
fx = gusts
dd = Direction du vent
ppp = reduced air pressure
vv = visibility
sd = Ensoleillement
rr = Quantités de précipitations

stations d'obs. à proximité